This is the latest recevied weather packets stored in our database for station/object PD2BVG. If no packets are shown the sender has not sent any weather packets the latest 10 day(s).
| Time | Temp. | Humidity | Pressure | Rain* | Wind** | Luminosity | Snow |
|---|---|---|---|---|---|---|---|
| 1777546359 | 17.78° C | 30% | 1025.9 hPa | 0 mm | - | 797 W/m² | - |
| 1777546296 | 17.78° C | 32% | 1026 hPa | 0 mm | - | 802 W/m² | - |
| 1777546236 | 17.22° C | 31% | 1026 hPa | 0 mm | - | 802 W/m² | - |
| 1777546176 | 17.22° C | 31% | 1026 hPa | 0 mm | - | 802 W/m² | - |
| 1777546115 | 17.78° C | 30% | 1026 hPa | 0 mm | - | 798 W/m² | - |
| 1777546054 | 17.78° C | 31% | 1026 hPa | 0 mm | - | 798 W/m² | - |
| 1777545994 | 17.22° C | 31% | 1026.1 hPa | 0 mm | - | 798 W/m² | - |
| 1777545933 | 17.22° C | 32% | 1026 hPa | 0 mm | - | 797 W/m² | - |
| 1777545874 | 17.22° C | 32% | 1026 hPa | 0 mm | - | 797 W/m² | - |
| 1777545812 | 17.22° C | 32% | 1026 hPa | 0 mm | - | 798 W/m² | - |
| 1777545755 | 17.22° C | 30% | 1026.1 hPa | 0 mm | - | 795 W/m² | - |
| 1777545693 | 17.22° C | 30% | 1026 hPa | 0 mm | - | 795 W/m² | - |
| 1777545633 | 17.22° C | 30% | 1026.1 hPa | 0 mm | - | 793 W/m² | - |
| 1777545570 | 17.22° C | 30% | 1026.1 hPa | 0 mm | - | 793 W/m² | - |
| 1777545510 | 17.22° C | 33% | 1026 hPa | 0 mm | - | 791 W/m² | - |
| 1777545450 | 17.22° C | 30% | 1026 hPa | 0 mm | - | 791 W/m² | - |
| 1777545389 | 17.22° C | 31% | 1026 hPa | 0 mm | - | 788 W/m² | - |
| 1777545330 | 17.22° C | 31% | 1026.1 hPa | 0 mm | - | 791 W/m² | - |
| 1777545269 | 17.22° C | 32% | 1026.1 hPa | 0 mm | - | 790 W/m² | - |
| 1777545210 | 17.22° C | 32% | 1026.1 hPa | 0 mm | - | 790 W/m² | - |
| 1777545149 | 17.22° C | 31% | 1026.1 hPa | 0 mm | - | 788 W/m² | - |
| 1777545089 | 17.22° C | 32% | 1026.1 hPa | 0 mm | - | 788 W/m² | - |
| 1777545030 | 17.22° C | 32% | 1026 hPa | 0 mm | - | 786 W/m² | - |
| 1777544970 | 17.22° C | 34% | 1026.1 hPa | 0 mm | - | 784 W/m² | - |
| 1777544909 | 17.22° C | 33% | 1026.2 hPa | 0 mm | - | 784 W/m² | - |
* Rain latest hour (hover to see other rain measurements)
** Current wind speed in m/s (hover to see current wind gust speed)